Regional Weather Roundup
Issued by NWS Goodland, KS

Home | Current Version | Previous Version | Text Only | Print | Product List | Glossary Off
Versions: 1 2 3 4 5 6 7 8 9 10 11 12 13 14 15 16 17 18 19 20 21 22 23 24 25 26 27 28 29 30 31 32 33 34 35 36 37 38 39 40 41 42 43 44 45 46 47 48 49 50

000
ASUS43 KGLD 012308
RWRGLD

GOODLAND FORECAST AREA HOURLY WEATHER ROUNDUP
NATIONAL WEATHER SERVICE GOODLAND KS
400 PM MST THU DEC 01 2016

...OFFICIAL OBSERVATIONS...

CITY           SKY/WX    TMP DP  RH WIND       PRES   REMARKS
GOODLAND KS    CLEAR     43   8  23 W7        29.95R
HILL CITY KS   CLEAR     45  16  31 NW3       29.98S
IMPERIAL NEB   CLEAR     42  12  29 NW9       29.94R
MCCOOK NEB     CLEAR     43  17  35 CALM      29.96S
AKRON CO       CLEAR     36  11  35 N3        29.93S
BURLINGTON CO  PTCLDY    38   7  27 W6        29.95R
LIMON CO       CLEAR     35   6  29 S6        29.92S
$$

...UNOFFICIAL OBSERVATIONS...

CITY           SKY/WX    TMP DP  RH WIND       PRES   REMARKS
COLBY KS       CLEAR     41  16  36 S3        29.98R
LENORA KS        N/A     44  32  63 MISG        N/A
NORTON KS      CLEAR     39   9  28 W3        29.96S
SHARON SPRINGS   N/A     43  14  30 CALM        N/A
TRENTON NEB      N/A     41  32  70 CALM        N/A
YUMA CO        FAIR      37  12  35 NW6       29.94R
$$




USA.gov is the U.S. government's official web portal to all federal, state and local government web resources and services.